Location: Unspecified
(52.4292°N, 19.3359°E)
Time: 02:22:32
(UTC+02:00)

Vanguard 1 Rocket - Pass Details

Date: 28 May 2024
Orbit: 649 x 4221 km, 34.3° (Epoch: 13 June)

Event Time Altitude Azimuth Distance (km) Brightness Sun altitude
Rises 11:27:59 0° 258° (WSW) 8,047 12.1 56.2°
Reaches altitude 10° 11:34:42 10° 251° (WSW) 6,594 11.8 56.7°
Maximum altitude 11:50:49 35° 196° (SSW) 3,425 11.4 57.7°
Drops below altitude 10° 12:00:15 10° 136° (SE) 3,870 11.2 58.2°
Sets 12:03:02 0° 126° (SE) 4,486 11.3 58.3°
